Simultaneous Nadir Overpasses (SNOs) Predictions

Prediction of SNOs between METOP-A and TERRA Satellite Orbit:

Table of predicted SNOs for the next 14.0 days since TLE Epoch: 5/1/2021
Index Date (METOP-A) Time (METOP-A) Lat,Lon (METOP-A) SZA (METOP-A ) Date (TERRA) Time (TERRA) Lat,Lon (TERRA) SZA (TERRA ) Distance(km) Time Diff (sec)
1 05/02/2021 00:27:32 81.33,-140.35 68.81 05/02/2021 00:28:11 81.33,-140.31 68.83 0.61 39
2 05/02/2021 01:18:12 -81.32, 27.24 111.18 05/02/2021 01:17:38 -81.32, 27.20 111.20 0.81 34
3 05/04/2021 20:01:54 81.32, -73.87 68.01 05/04/2021 20:02:24 81.32, -74.01 68.00 2.33 30
4 05/04/2021 20:52:35 -81.33, 93.38 112.01 05/04/2021 20:51:51 -81.32, 93.53 112.02 2.88 44
5 05/07/2021 15:36:16 81.32, -7.41 67.24 05/07/2021 15:36:36 81.33, -7.37 67.26 1.62 20
6 05/07/2021 16:26:57 -81.32, 159.87 112.78 05/07/2021 16:26:04 -81.31, 159.82 112.82 1.66 53
7 05/10/2021 11:10:37 81.32, 59.03 66.50 05/10/2021 11:10:48 81.32, 58.84 66.48 3.29 11
8 05/10/2021 12:01:18 -81.32,-133.65 113.52 05/10/2021 12:00:15 -81.32,-133.56 113.54 1.55 63
9 05/13/2021 05:54:24 -81.38, -44.00 114.40 05/13/2021 05:55:38 -81.24, -43.77 114.43 16.63 74
10 05/13/2021 06:44:59 81.31, 125.45 65.79 05/13/2021 06:45:00 81.33, 125.38 65.79 1.95 1



Historial Predications of SNOs between METOP-A and TERRA
